This demonstration page uses our WeatherBlox Daily Observations layout. Learn more.

Left ArrowRight Arrow

Hourly Observations for March 21, 2022

Temp ( °F °C ) Dew Point ( °F °C ) Humidity (%) Winds ( mph kmh ) Pressure ( in mb ) Visibility ( mi km ) Precip ( " mm )
12:59 am 00:59 Clear 54 12.2 31 -0.6 42 42 NW 16 26 30.13 1020 10 16 0.00 0.00
1:59 am 01:59 Clear 54 12.2 31 -0.6 42 42 NW 18 30 30.14 1021 10 16 0.00 0.00
2:59 am 02:59 Clear 53 11.7 31 -0.6 43 43 NW 18 30 30.16 1022 10 16 0.00 0.00
3:59 am 03:59 Clear 52 11.1 31 -0.6 45 45 NW 14 22 30.19 1022 10 16 0.00 0.00
4:59 am 04:59 Clear 51 10.6 32 0 48 48 NW 12 19 30.21 1023 10 16 0.00 0.00
5:59 am 05:59 Clear 50 10 32 0 50 50 NW 12 19 30.23 1024 10 16 0.00 0.00
6:59 am 06:59 Clear 49 9.4 33 0.6 55 55 NW 9 15 30.25 1025 10 16 0.00 0.00
7:59 am 07:59 Sunny 51 10.6 35 1.7 54 54 W 8 13 30.28 1025 10 16 0.00 0.00
8:59 am 08:59 Sunny 53 11.7 36 2.2 52 52 W 12 19 30.30 1026 10 16 0.00 0.00
9:59 am 09:59 Sunny 55 12.8 36 2.2 49 49 W 8 13 30.32 1027 10 16 0.00 0.00
10:59 am 10:59 Sunny 60 15.6 35 1.7 39 39 NW 13 20 30.32 1027 10 16 0.00 0.00
11:59 am 11:59 Sunny 61 16.1 35 1.7 38 38 WNW 10 17 30.31 1026 10 16 0.00 0.00
12:59 pm 12:59 Mostly Sunny 62 16.7 32 0 32 32 VRB 6 9 30.28 1025 10 16 0.00 0.00
1:59 pm 13:59 Sunny 63 17.2 28 -2.2 27 27 W 8 13 30.25 1024 10 16 0.00 0.00
2:59 pm 14:59 Sunny 65 18.3 30 -1.1 27 27 VRB 6 9 30.21 1023 10 16 0.00 0.00
3:59 pm 15:59 Sunny 67 19.4 31 -0.6 26 26 VRB 7 11 30.19 1023 10 16 0.00 0.00
4:59 pm 16:59 Sunny 67 19.4 32 0 27 27 WSW 9 15 30.17 1022 10 16 0.00 0.00
5:59 pm 17:59 Sunny 67 19.4 33 0.6 28 28 WSW 7 11 30.17 1022 10 16 0.00 0.00
6:59 pm 18:59 Sunny 65 18.3 34 1.1 32 32 SW 8 13 30.17 1022 10 16 0.00 0.00
7:59 pm 19:59 Clear 62 16.7 36 2.2 38 38 SSW 6 9 30.17 1022 10 16 0.00 0.00
8:59 pm 20:59 Clear 61 16.1 34 1.1 36 36 SSW 7 11 30.17 1022 10 16 0.00 0.00
9:59 pm 21:59 Clear 60 15.6 34 1.1 38 38 SSW 9 15 30.18 1022 10 16 0.00 0.00
10:59 pm 22:59 Clear 59 15 33 0.6 38 38 SSW 8 13 30.19 1022 10 16 0.00 0.00
11:59 pm 23:59 Clear 58 14.4 32 0 38 38 SSW 8 13 30.18 1022 10 16 0.00 0.00

Powered by AerisWeather